sat.trackr.live / text

‹ back to catalog

USA 153

NORAD 26575 · 2000-065A

PAYLOAD ACTIVE UNKNOWN

§ Identity

Operator
Country
US
Launch date
2000-10-20
Launch site
AFETR
Launch vehicle
Mass (kg)
RCS (m²)

Purposes: comms

External: N2YO · Heavens-Above · Gunter

§ Orbital elements

Epoch: 2026-09-19T17:41:04.309152Z

Period
1,436.14 min
Inclination
11.7861°
Eccentricity
0.0001579
Mean motion
1.00268465 rev/d
Perigee alt
35,780.9 km
Apogee alt
35,794.2 km
Semi-major
42,165.7 km
B*
0.0000e+0
RAAN
34.6113°
Arg perigee
137.9286°
Mean anomaly
225.7661°
Rev number
3,388

§ Raw data

USA 1531 26575U 00065A   26262.73685543 -.00000325  00000+0  00000+0 0  99942 26575  11.7861  34.6113 0001579 137.9286 225.7661  1.00268465 33880

JSON: /api/v1/satellites/26575 · /tle

For live sub-satellite position, see the globe view (requires WebGL).

§ Visibility from observer

Set your observer location to see the next 7 days of passes ≥ 10°. The values pass through the URL so the page stays shareable.

No JS? Fill the form by hand. The geolocation button needs JavaScript.